New Bern, NC

12:20 AM EDT on March 29, 2017 (GMT -0400)
Craven County Regional

Weather History for KEWN - August, 2014

Change the Weather History Date:

Monday, August 4, 2014

  Actual Average Record
Temperature  
Mean Temperature 77 °F 80 °F  
Max Temperature 82 °F 89 °F 99 °F (1980)
Min Temperature 72 °F 71 °F 61 °F (1956)
Degree Days  
Heating Degree Days 0 0  
Month to date heating degree days 0 0  
Since 1 June heating degree days 0 1  
Since 1 July heating degree days 0 0  
Cooling Degree Days 12 15  
Month to date cooling degree days 44 60  
Year to date cooling degree days 1309 1150  
Since 1 June cooling degree days 948 907  
Growing Degree Days 27 (Base 50)    
Moisture  
Dew Point 72 °F    
Average Humidity 86    
Maximum Humidity 93    
Minimum Humidity 79    
Precipitation  
Precipitation 1.61 in 0.22 in 1.61 in (2014)
Month to date precipitation 4.98 0.86  
Year to date precipitation 32.86 31.01  
Snow  
Snow 0.00 in - - ()
Month to date snowfall 0.0  
Since 1 July snowfall 0.0  
Snow Depth 0.00 in    
Sea Level Pressure  
Sea Level Pressure 30.07 in    
Wind  
Wind Speed 2 mph (ENE)    
Max Wind Speed 9 mph    
Max Gust Speed 29 mph    
Visibility 7 miles    
Events Fog , Rain    
T = Trace of Precipitation, MM = Missing Value Source: NWS Daily Summary

Daily Weather History Graph

Daily Weather History Graph

Search for Another Location

Airport or City:

Trip Planner

Search our weather history database for the weather conditions in past years. The results will help you decide how hot, cold, wet, or windy it might be!

Date:

Astronomy

Aug. 04, 2014 Rise Set
Actual Time 6:19 AM EDT 8:08 PM EDT
Civil Twilight 5:52 AM EDT 8:35 PM EDT
Nautical Twilight 5:18 AM EDT 9:09 PM EDT
Astronomical Twilight 4:43 AM EDT 9:44 PM EDT
Moon 2:18 PM EDT (8/4) 12:23 AM EDT (8/4)
Length of Visible Light 14h 43m
Length of Day
13h 48m
First Quarter, 57% of the Moon is Illuminated
Aug 4
First Quarter
Aug 10
Full
Aug 17
Last Quarter
Aug 25
New
Sep 2
First Quarter

Hourly Weather History & Observations

Time (EDT) Temp. Heat Index Dew Point Humidity Pressure Visibility Wind Dir Wind Speed Gust Speed Precip Events Conditions
1:37 AM 73.4 °F - 69.8 °F 88% 30.09 in 10.0 mi Calm Calm - 0.00 in   Overcast
1:54 AM 73.0 °F - 70.0 °F 90% 30.08 in 6.0 mi ENE 4.6 mph - 0.01 in Rain Rain
2:07 AM 73.4 °F - 69.8 °F 88% 30.08 in 2.5 mi ENE 3.5 mph - 0.07 in Rain Heavy Rain
2:11 AM 73.4 °F - 69.8 °F 88% 30.08 in 1.8 mi Calm Calm - 0.12 in Rain Heavy Rain
2:25 AM 73.4 °F - 69.8 °F 88% 30.08 in 0.5 mi Calm Calm - 0.61 in Fog , Rain Heavy Rain
2:36 AM 73.4 °F - 69.8 °F 88% 30.08 in 1.0 mi ENE 4.6 mph - 0.92 in Rain Heavy Rain
2:45 AM 73.4 °F - 69.8 °F 88% 30.07 in 3.0 mi East 4.6 mph - 0.96 in Rain Rain
2:54 AM 73.0 °F - 70.0 °F 90% 30.08 in 4.0 mi NNE 4.6 mph - 0.98 in Rain Rain
3:21 AM 73.4 °F - 71.6 °F 94% 30.07 in 10.0 mi Calm Calm - 0.05 in Rain Light Rain
3:43 AM 73.4 °F - 71.6 °F 94% 30.07 in 1.8 mi North 3.5 mph - 0.17 in Rain Heavy Rain
3:51 AM 73.4 °F - 71.6 °F 94% 30.07 in 1.5 mi NE 8.1 mph - 0.27 in Rain Heavy Rain
3:54 AM 73.0 °F - 71.1 °F 93% 30.07 in 2.0 mi ENE 8.1 mph - 0.27 in Rain Heavy Rain
4:02 AM 73.4 °F - 71.6 °F 94% 30.06 in 5.0 mi ENE 8.1 mph - 0.01 in Rain Rain
4:54 AM 73.9 °F - 71.1 °F 91% 30.06 in 10.0 mi ENE 4.6 mph - 0.01 in   Overcast
5:54 AM 73.9 °F - 71.1 °F 91% 30.07 in 4.0 mi East 3.5 mph - 0.03 in Rain Rain
6:37 AM 73.4 °F - 71.6 °F 94% 30.07 in 8.0 mi NE 5.8 mph - 0.04 in Rain Light Rain
6:47 AM 73.4 °F - 71.6 °F 94% 30.07 in 5.0 mi NE 5.8 mph - 0.06 in Rain Light Rain
6:54 AM 73.0 °F - 71.1 °F 93% 30.07 in 10.0 mi NE 6.9 mph - 0.06 in Rain Light Rain
7:20 AM 73.4 °F - 71.6 °F 94% 30.08 in 10.0 mi ENE 3.5 mph - 0.00 in Rain Light Rain
7:54 AM 73.0 °F - 71.1 °F 93% 30.09 in 10.0 mi ENE 3.5 mph - 0.04 in   Overcast
8:44 AM 73.4 °F - 71.6 °F 94% 30.09 in 10.0 mi Variable 6.9 mph - N/A   Overcast
8:54 AM 73.9 °F - 70.0 °F 87% 30.09 in 10.0 mi NE 4.6 mph - N/A   Overcast
9:54 AM 75.0 °F - 71.1 °F 87% 30.09 in 9.0 mi NE 3.5 mph - 0.01 in Rain Light Rain
10:01 AM 73.4 °F - 71.6 °F 94% 30.09 in 7.0 mi NE 4.6 mph - 0.00 in Rain Light Rain
10:33 AM 73.4 °F - 71.6 °F 94% 30.10 in 5.0 mi NE 3.5 mph - 0.00 in Rain Light Rain
10:44 AM 75.2 °F - 71.6 °F 89% 30.10 in 5.0 mi NE 3.5 mph - 0.00 in Rain Light Rain
10:54 AM 75.0 °F - 72.0 °F 90% 30.11 in 5.0 mi Calm Calm - 0.00 in Rain Light Rain
11:34 AM 75.2 °F - 71.6 °F 89% 30.11 in 2.5 mi Calm Calm - 0.01 in Rain Light Rain
11:54 AM 75.9 °F - 72.0 °F 87% 30.11 in 7.0 mi Calm Calm - 0.01 in   Overcast
12:54 PM 77.0 °F - 73.0 °F 88% 30.09 in 10.0 mi Calm Calm - 0.01 in   Overcast
1:24 PM 78.8 °F - 73.4 °F 83% 30.09 in 10.0 mi Calm Calm - N/A   Overcast
1:54 PM 78.1 °F - 72.0 °F 81% 30.09 in 10.0 mi Calm Calm - N/A   Overcast
2:02 PM 78.8 °F - 73.4 °F 83% 30.08 in 10.0 mi Calm Calm - N/A   Overcast
2:54 PM 78.1 °F - 73.0 °F 84% 30.07 in 4.0 mi SSE 4.6 mph - 0.01 in Rain Light Rain
2:57 PM 78.8 °F - 73.4 °F 83% 30.07 in 1.8 mi South 3.5 mph - 0.05 in Rain Heavy Rain
3:16 PM 78.8 °F - 73.4 °F 83% 30.06 in 10.0 mi SW 3.5 mph - 0.09 in   Mostly Cloudy
3:46 PM 80.6 °F 85.4 °F 73.4 °F 79% 30.05 in 10.0 mi Calm Calm - 0.09 in   Mostly Cloudy
3:54 PM 80.1 °F 84.2 °F 73.0 °F 79% 30.05 in 10.0 mi Calm Calm - 0.09 in   Mostly Cloudy
4:54 PM 81.0 °F 86.2 °F 73.9 °F 79% 30.04 in 10.0 mi NE 3.5 mph - N/A   Mostly Cloudy
5:45 PM 80.6 °F 85.4 °F 73.4 °F 79% 30.05 in 10.0 mi Calm Calm - N/A   Mostly Cloudy
5:54 PM 80.1 °F 84.2 °F 73.0 °F 79% 30.05 in 10.0 mi Calm Calm - N/A   Overcast
6:42 PM 80.6 °F 85.4 °F 73.4 °F 79% 30.04 in 10.0 mi Calm Calm - N/A   Overcast
6:54 PM 80.1 °F 84.5 °F 73.9 °F 81% 30.05 in 10.0 mi Calm Calm - N/A   Overcast
7:15 PM 78.8 °F - 73.4 °F 83% 30.05 in 4.0 mi Calm Calm - 0.01 in Rain Rain
7:27 PM 78.8 °F - 73.4 °F 83% 30.04 in 2.0 mi Calm Calm - 0.06 in Rain Heavy Rain
7:34 PM 78.8 °F - 73.4 °F 83% 30.05 in 1.8 mi Calm Calm - 0.08 in Rain Light Rain
7:38 PM 78.8 °F - 73.4 °F 83% 30.05 in 4.0 mi Calm Calm - 0.08 in Rain Light Rain
7:43 PM 78.8 °F - 73.4 °F 83% 30.05 in 10.0 mi Calm Calm - 0.08 in Rain Light Rain
7:54 PM 78.1 °F - 73.9 °F 87% 30.05 in 10.0 mi Calm Calm - 0.08 in   Overcast
8:09 PM 78.8 °F - 73.4 °F 83% 30.05 in 10.0 mi Calm Calm - 0.00 in Rain Light Rain
8:24 PM 78.8 °F - 73.4 °F 83% 30.06 in 10.0 mi South 5.8 mph - 0.00 in   Overcast
8:45 PM 77.0 °F - 73.4 °F 89% 30.07 in 10.0 mi Calm Calm - 0.00 in   Overcast
8:54 PM 77.0 °F - 73.9 °F 90% 30.07 in 10.0 mi Calm Calm - 0.00 in   Overcast
9:29 PM 77.0 °F - 73.4 °F 89% 30.07 in 10.0 mi SSE 3.5 mph - N/A   Mostly Cloudy
9:36 PM 75.2 °F - 73.4 °F 94% 30.07 in 10.0 mi SSE 4.6 mph - N/A   Overcast
9:54 PM 75.9 °F - 72.0 °F 87% 30.08 in 10.0 mi SSE 5.8 mph - N/A   Overcast
10:09 PM 75.2 °F - 71.6 °F 89% 30.07 in 10.0 mi Calm Calm - N/A   Scattered Clouds
10:54 PM 75.0 °F - 72.0 °F 90% 30.07 in 10.0 mi Calm Calm - N/A   Clear
11:54 PM 75.0 °F - 72.0 °F 90% 30.06 in 10.0 mi Calm Calm - N/A   Clear